Location: Newark
(5.8900°S, 42.6378°W)
Time: 08:02:29
(UTC+00:00)

Oscar 11 - Visible Passes

Search period start: 14 October 2019 00:00
Search period end: 24 October 2019 00:00
Orbit: 614 x 624 km, 97.6° (Epoch: 14 October)

Date Brightness Start Highest point End Pass type
(mag) Time Alt. Az. Time Alt. Az. Time Alt. Az.
14 Oct 7.0 21:35:39 10° SSE 21:39:55 66° E 21:44:12 10° N visible
15 Oct 7.3 21:52:42 10° S 21:57:00 68° WSW 22:01:16 10° NNW visible
16 Oct 8.5 22:10:03 10° S 22:14:03 37° WSW 22:18:02 10° NW visible
17 Oct 9.5 22:27:47 10° SSW 22:31:05 22° WSW 22:34:24 10° NW visible
18 Oct 8.0 21:08:40 10° SE 21:12:17 26° E 21:15:54 10° NNE visible
18 Oct 10.3 22:46:17 10° SW 22:48:07 12° WSW 22:49:57 10° WNW visible
19 Oct 7.3 21:25:13 10° SSE 21:29:22 46° E 21:33:30 10° N visible
20 Oct 6.9 21:42:07 10° SSE 21:46:26 85° E 21:50:45 10° N visible
21 Oct 7.8 21:59:17 10° S 22:03:30 53° WSW 22:07:42 10° NNW visible
22 Oct 9.0 22:16:47 10° SSW 22:20:32 30° WSW 22:24:18 10° NW visible
23 Oct 8.4 20:58:37 10° SE 21:01:43 19° E 21:04:49 10° NNE visible
23 Oct 9.9 22:34:44 10° SW 22:37:35 17° WSW 22:40:25 10° WNW visible
